Home   Weather   New York   Past weeks

Flag for USA Past Weather in New York, New York, USA — Yesterday and Last 2 Weeks

68 °F


Feels Like: 68 °F
Forecast: 63 / 73 °F
Wind: 8 mph from East

Location: New York City - Central Park

Current Time: Oct 20, 2016 at 5:36:37 PM

Latest Report: Oct 20, 2016 at 4:51 PM

Visibility: 6 mi

Pressure: 30.04 "Hg

Humidity: 78%

Dew Point: 61 °F

Location of New YorkLocation

Past Weather in New York — Graph


New York Temperature Yesterday

Maximum temperature yesterday: 84 °F (at 2:51 PM)
Minimum temperature yesterday: 67 °F (at 11:51 PM)
Average temperature yesterday: 74 °F

High & Low Weather Summary for the Past Weeks

High84 °F (Oct 19, 2:51 PM)97% (Oct 8, 7:00 PM)30.47 "Hg (Oct 8, 7:00 PM)
Low46 °F (Oct 15, 5:51 AM)28% (Oct 10, 2:51 PM)29.82 "Hg (Oct 18, 5:51 PM)
Average62 °F68%30.17 "Hg
* Reported Oct 5 3:51 PM — Oct 20 3:51 PM, New York, Weather by CustomWeather, © 2016

Note: Actual official high and low records may vary slightly from our data, if they occured in-between our weather recording intervals... More about our weather records


New York Weather History for the Previous 24 Hours

Scroll right to see more
Time TempWeatherWind HumidityBarometerVisibility
3:51 PM
Thu, Oct 20
69 °FOvercast.6 mph73%30.06 "Hg7 mi
2:51 PM70 °FOvercast.7 mph71%30.08 "Hg8 mi
1:51 PM69 °FOvercast.6 mph68%30.09 "Hg9 mi
12:51 PM69 °FPartly sunny.8 mph63%30.11 "Hg10 mi
11:51 AM68 °FOvercast.8 mph63%30.13 "Hg10 mi
10:51 AM68 °FSunny.6 mph63%30.14 "Hg10 mi
9:51 AM66 °FPartly sunny.7 mph65%30.14 "Hg10 mi
8:51 AM64 °FPassing clouds.12 mph70%30.14 "Hg10 mi
7:51 AM63 °FScattered clouds.7 mph68%30.14 "Hg10 mi
6:51 AM62 °FPassing clouds.6 mph70%30.14 "Hg10 mi
5:51 AM63 °FPassing clouds.8 mph63%30.14 "Hg10 mi
4:51 AM63 °FPassing clouds.6 mph60%30.14 "Hg10 mi
3:51 AM63 °FClear.5 mph60%30.13 "Hg10 mi
2:51 AM63 °FClear.6 mph60%30.12 "Hg10 mi
1:51 AM64 °FClear.5 mph58%30.13 "Hg10 mi
12:51 AM65 °FClear.5 mph54%30.13 "Hg10 mi
11:51 PM
Wed, Oct 19
67 °FClear.No wind51%30.14 "Hg10 mi
10:51 PM69 °FClear.3 mph49%30.14 "Hg10 mi
9:51 PM71 °FClear.8 mph45%30.12 "Hg10 mi
8:51 PM72 °FPassing clouds.5 mph40%30.09 "Hg10 mi
7:51 PM74 °FClear.3 mph38%30.07 "Hg10 mi
6:51 PM77 °FPassing clouds.N/A39%30.04 "Hg10 mi
5:51 PM79 °FSunny.No wind41%30.01 "Hg10 mi
Weather by CustomWeather, © 2016

See weather overviewHow to use our weather pages